Rome, NY

7:31 AM EST on November 13, 2019 (GMT -0500)
Griffiss

Weather History for KRME - October, 2019

Change the Weather History Date:

Wednesday, October 23, 2019

  Actual Average Record
Temperature  
Mean Temperature 50 °F -  
Max Temperature 75 °F 57 °F 76 °F (1979)
Min Temperature 39 °F 37 °F 18 °F (1969)
Degree Days  
Heating Degree Days 15    
Moisture  
Dew Point 45 °F    
Average Humidity 88    
Maximum Humidity 100    
Minimum Humidity 45    
Precipitation  
Precipitation 0.02 in - - ()
Sea Level Pressure  
Sea Level Pressure 29.91 in    
Wind  
Wind Speed 2 mph (West)    
Max Wind Speed 14 mph    
Max Gust Speed 21 mph    
Visibility 7 miles    
Events Fog    
Averages and records for this station are not official NWS values.
T = Trace of Precipitation, MM = Missing Value Source: NWS Daily Summary

Daily Weather History Graph

Daily Weather History Graph

Search for Another Location

Airport or City:

Astronomy

Oct. 23, 2019 Rise Set
Actual Time 7:24 AM EDT 6:06 PM EDT
Civil Twilight 6:55 AM EDT 6:35 PM EDT
Nautical Twilight 6:22 AM EDT 7:08 PM EDT
Astronomical Twilight 5:49 AM EDT 7:41 PM EDT
Moon 1:28 AM EDT (10/23) 4:06 PM EDT (10/23)
Length of Visible Light 11h 39m
Length of Day
10h 41m
Waning Crescent, 27% of the Moon is Illuminated
Oct 23
Waning Crescent
Oct 27
New
Nov 4
First Quarter
Nov 12
Full
Nov 19
Last Quarter

Hourly Weather History & Observations

Time (EDT) Temp. Windchill Dew Point Humidity Pressure Visibility Wind Dir Wind Speed Gust Speed Precip Events Conditions
12:53 AM 54.0 °F - 54.0 °F 100% 29.83 in 10.0 mi Calm Calm - 0.02 in   Overcast
1:26 AM 53.1 °F - 53.1 °F 100% 29.83 in 10.0 mi Calm Calm - 0.00 in   Overcast
1:53 AM 52.0 °F - 52.0 °F 100% 29.84 in 1.2 mi Calm Calm - 0.00 in   Overcast
2:03 AM 52.0 °F - 52.0 °F 100% 29.84 in 0.8 mi Calm Calm - N/A   Overcast
2:13 AM 52.0 °F - 52.0 °F 100% 29.84 in 2.0 mi Calm Calm - N/A   Overcast
2:21 AM 52.0 °F - 52.0 °F 100% 29.84 in 5.0 mi Calm Calm - N/A   Overcast
2:53 AM 48.9 °F - 48.9 °F 100% 29.83 in 4.0 mi Calm Calm - N/A   Mostly Cloudy
3:04 AM 48.9 °F - 48.9 °F 100% 29.83 in 1.8 mi Calm Calm - N/A   Overcast
3:23 AM 48.9 °F - 48.9 °F 100% 29.83 in 3.0 mi Calm Calm - N/A   Overcast
3:38 AM 48.9 °F - 48.9 °F 100% 29.83 in 10.0 mi Calm Calm - N/A   Overcast
3:53 AM 48.9 °F - 48.9 °F 100% 29.83 in 10.0 mi Calm Calm - N/A   Overcast
4:15 AM 48.9 °F - 48.9 °F 100% 29.83 in 1.8 mi Calm Calm - N/A   Scattered Clouds
4:21 AM 48.0 °F - 48.0 °F 100% 29.83 in 0.5 mi Calm Calm - N/A Fog Fog
4:53 AM 48.0 °F - 48.0 °F 100% 29.84 in 1.0 mi Calm Calm - N/A   Overcast
5:00 AM 48.0 °F - 48.0 °F 100% 29.84 in 3.0 mi Calm Calm - N/A   Overcast
5:11 AM 48.0 °F - 48.0 °F 100% 29.84 in 10.0 mi SE 3.5 mph - N/A   Overcast
5:35 AM 48.0 °F - 48.0 °F 100% 29.85 in 2.0 mi Calm Calm - N/A   Overcast
5:51 AM 48.2 °F - 48.2 °F 100% 29.86 in 0.8 mi Calm Calm - N/A   Overcast
5:53 AM 48.0 °F - 48.0 °F 100% 29.86 in 0.8 mi Calm Calm - N/A   Overcast
6:09 AM 46.9 °F - 46.9 °F 100% 29.86 in 2.5 mi Calm Calm - N/A   Mostly Cloudy
6:16 AM 46.9 °F - 46.9 °F 100% 29.86 in 10.0 mi ENE 3.5 mph - N/A   Scattered Clouds
6:53 AM 48.0 °F - 48.0 °F 100% 29.87 in 8.0 mi Calm Calm - N/A   Scattered Clouds
7:19 AM 44.1 °F - 44.1 °F 100% 29.87 in 1.8 mi Calm Calm - N/A   Clear
7:26 AM 43.0 °F - 43.0 °F 100% 29.88 in 0.2 mi Calm Calm - N/A Fog Fog
7:35 AM 44.1 °F - 44.1 °F 100% 29.88 in 0.2 mi Calm Calm - N/A Fog Fog
7:51 AM 44.6 °F - 44.6 °F 100% 29.88 in 10.0 mi Calm Calm - N/A   Clear
7:53 AM 44.1 °F - 44.1 °F 100% 29.88 in 10.0 mi Calm Calm - N/A   Clear
8:53 AM 48.0 °F - 48.0 °F 100% 29.91 in 10.0 mi Calm Calm - N/A   Clear
9:53 AM 52.0 °F - 45.0 °F 77% 29.92 in 10.0 mi Calm Calm - N/A   Clear
10:53 AM 52.0 °F - 45.0 °F 77% 29.92 in 10.0 mi West 11.5 mph - N/A   Clear
11:53 AM 61.0 °F - 43.0 °F 52% 29.93 in 10.0 mi West 11.5 mph - N/A   Mostly Cloudy
12:53 PM 57.0 °F - 43.0 °F 59% 29.92 in 10.0 mi West 13.8 mph - N/A   Scattered Clouds
1:53 PM 57.0 °F - 43.0 °F 59% 29.93 in 10.0 mi WSW 10.4 mph - N/A   Scattered Clouds
1:58 PM 57.0 °F - 39.0 °F 51% 29.93 in 10.0 mi West 13.8 mph - N/A   Mostly Cloudy
2:53 PM 57.0 °F - 39.0 °F 51% 29.94 in 10.0 mi West 13.8 mph - N/A   Mostly Cloudy
3:53 PM 55.9 °F - 42.1 °F 60% 29.96 in 10.0 mi West 5.8 mph - N/A   Partly Cloudy
4:53 PM 57.0 °F - 37.9 °F 49% 29.98 in 10.0 mi West 12.7 mph - N/A   Clear
5:53 PM 55.9 °F - 35.1 °F 45% 30.02 in 10.0 mi West 13.8 mph 20.7 mph N/A   Mostly Cloudy
6:53 PM 53.1 °F - 36.0 °F 52% 30.05 in 10.0 mi West 10.4 mph - N/A   Clear
7:53 PM 50.0 °F - 36.0 °F 59% 30.09 in 10.0 mi West 5.8 mph - N/A   Clear
8:53 PM 44.1 °F - 39.9 °F 85% 30.10 in 10.0 mi Calm Calm - N/A   Clear
9:53 PM 39.9 °F - 37.9 °F 93% 30.11 in 10.0 mi Calm Calm - N/A   Clear
10:53 PM 39.9 °F 37.8 °F 37.9 °F 93% 30.13 in 10.0 mi Variable 3.5 mph - N/A   Clear
11:53 PM 39.0 °F - 37.0 °F 93% 30.13 in 10.0 mi Calm Calm - N/A   Clear